Regional Weather Roundup
Issued by NWS State College, PA

Home | Current Version | Previous Version | Graphics & Text | Print | Product List | Glossary Off
Versions: 1 2 3 4 5 6 7 8 9 10 11 12 13 14 15 16 17 18 19 20 21 22 23 24 25 26 27 28 29 30 31 32 33 34 35 36 37 38 39 40 41 42 43 44 45 46 47 48 49 50

189
ASUS41 KCTP 241610
RWRCTP

REGIONAL WEATHER ROUNDUP
NATIONAL WEATHER SERVICE STATE COLLEGE PA
1200 PM EDT FRI MAR 24 2017

Note: "fair" indicates few or no clouds below 12,000 feet with no
significant weather and/or obstructions to visibility.

* = STATION THAT DOES NOT REPORT PRECIPITATION /E.G. RAIN...SNOW...ETC/
    THUNDER OR FOG.

PAZ002>004-007>009-013>016-020>023-029>032-241700-
WESTERN PENNSYLVANIA

CITY           SKY/WX    TMP DP  RH WIND       PRES   REMARKS
ERIE           CLOUDY    61  42  49 SW23G33   30.04S
MEADVILLE      CLOUDY    56  39  53 SW15      30.10S
FRANKLIN*      CLOUDY    55  39  54 SW17G25   30.13F
NEW CASTLE     FAIR      59  43  55 SW12G20   30.14F
BEAVER COUNTY  PTSUNNY   59  41  51 SW17G28   30.15F
BUTLER*        PTSUNNY   59  41  51 SW14G20   30.17F
PITTSBURGH INT CLOUDY    61  41  47 SW16G25   30.16F
PITTSBURGH     MOSUNNY   62  40  44 SW18G25   30.17F
INDIANA*       CLOUDY    57  45  62 W17       30.20F
LATROBE        MOSUNNY   59  41  51 SW17G29   30.21F
WASHINGTON CO* SUNNY     63  43  48 SW21G26   30.22F
$$

PAZ004>006-010>012-017>019-024>028-033>037-041-042-045-046-049>053-241700-
CENTRAL PENNSYLVANIA

CITY           SKY/WX    TMP DP  RH WIND       PRES   REMARKS
BRADFORD       MOSUNNY   52  41  66 SW12G24   30.10F
DUBOIS         MOSUNNY   55  40  56 SW18G30   30.14F
CLEARFIELD       N/A    N/A N/A N/A MISG      30.17F
JOHNSTOWN      CLOUDY    55  44  66 SW13G20   30.19F
ALTOONA        CLOUDY    49  41  74 SW12      30.22F
STATE COLLEGE  MOSUNNY   45  36  70 SW13G18   30.22F
WILLIAMSPORT   CLOUDY    38  28  67 VRB6G17   30.27F
SELINSGROVE    CLOUDY    41  30  65 S12       30.30F
FT INDIANTOWN  PTSUNNY   40  33  75 SW9       30.32F
CAPITAL CITY   PTSUNNY   45  31  58 S10G17    30.33F
HARRISBURG     PTSUNNY   42  31  64 S10G20    30.34F
YORK           CLOUDY    42  34  73 SW9       30.34F
$$

PAZ038>040-043-044-047-048-054-055-060>062-067>071-241700-
EASTERN PENNSYLVANIA

CITY           SKY/WX    TMP DP  RH WIND       PRES   REMARKS
SCRANTON       LGT RAIN  35  32  88 CALM      30.28R FOG
MOUNT POCONO   FRZ RAIN  31  29  92 SW12G20   30.25F
ALLENTOWN      CLOUDY    42  27  55 SW10      30.35F
QUAKERTOWN*    CLOUDY    41  28  60 SW12G17   30.35F
READING        CLOUDY    41  30  65 S10       30.34F
LANCASTER      CLOUDY    43  30  60 SW12G20   30.35F
COATESVILLE    CLOUDY    43  27  52 S12       30.36F
POTTSTOWN      CLOUDY    42  27  55 SW7       30.37F
BLUE BELL      CLOUDY    45  30  57 SW10      30.36F
DOYLESTOWN     CLOUDY    43  28  55 SW13G23   30.35F
WILLOW GROVE   NOT AVBL
NORTH PHILA    CLOUDY    49  27  42 SW15G24   30.39F
PHILADELPHIA   CLOUDY    48  27  44 SW22G29   30.39F
$$




USA.gov is the U.S. government's official web portal to all federal, state and local government web resources and services.